TimeEDT,TemperatureF,Dew PointF,Humidity,Sea Level PressureIn,VisibilityMPH,Wind Direction,Wind SpeedMPH,Gust SpeedMPH,PrecipitationIn,Events,Conditions,WindDirDegrees,DateUTC
12:15 AM,51.8,46.4,82,29.81,10.0,WSW,3.5,-,N/A,,Clear,240,2012-10-20 04:15:00
12:35 AM,55.4,42.8,63,29.82,10.0,Calm,Calm,-,N/A,,Clear,0,2012-10-20 04:35:00
12:55 AM,53.6,44.6,72,29.82,10.0,WSW,3.5,-,N/A,,Clear,240,2012-10-20 04:55:00
1:15 AM,51.8,44.6,76,29.81,10.0,Calm,Calm,-,N/A,,Clear,0,2012-10-20 05:15:00
1:35 AM,53.6,44.6,72,29.81,10.0,Calm,Calm,-,N/A,,Clear,0,2012-10-20 05:35:00
1:55 AM,51.8,42.8,71,29.81,10.0,WSW,3.5,-,N/A,,Clear,240,2012-10-20 05:55:00
2:15 AM,50.0,44.6,82,29.81,10.0,SSW,3.5,-,N/A,,Clear,200,2012-10-20 06:15:00
2:35 AM,50.0,44.6,82,29.81,10.0,SSW,3.5,-,N/A,,Clear,200,2012-10-20 06:35:00
2:55 AM,50.0,44.6,82,29.81,10.0,Calm,Calm,-,N/A,,Clear,0,2012-10-20 06:55:00
3:15 AM,50.0,44.6,82,29.81,10.0,Calm,Calm,-,N/A,,Clear,0,2012-10-20 07:15:00
3:35 AM,48.2,44.6,87,29.81,10.0,Calm,Calm,-,N/A,,Clear,0,2012-10-20 07:35:00
3:55 AM,46.4,42.8,87,29.80,10.0,Calm,Calm,-,N/A,,Clear,0,2012-10-20 07:55:00
4:15 AM,48.2,44.6,87,29.80,10.0,Calm,Calm,-,N/A,,Clear,0,2012-10-20 08:15:00
4:35 AM,44.6,44.6,100,29.81,10.0,Calm,Calm,-,N/A,,Clear,0,2012-10-20 08:35:00
4:55 AM,44.6,44.6,100,29.81,10.0,Calm,Calm,-,N/A,,Clear,0,2012-10-20 08:55:00
5:15 AM,44.6,44.6,100,29.81,10.0,Calm,Calm,-,N/A,,Clear,0,2012-10-20 09:15:00
5:35 AM,44.6,42.8,93,29.81,10.0,Calm,Calm,-,N/A,,Clear,0,2012-10-20 09:35:00
5:55 AM,44.6,42.8,93,29.81,10.0,Calm,Calm,-,N/A,,Clear,0,2012-10-20 09:55:00
6:15 AM,44.6,42.8,93,29.82,10.0,Calm,Calm,-,N/A,,Clear,0,2012-10-20 10:15:00
6:35 AM,44.6,42.8,93,29.83,10.0,Calm,Calm,-,N/A,,Clear,0,2012-10-20 10:35:00
6:55 AM,44.6,42.8,93,29.84,10.0,Calm,Calm,-,N/A,,Clear,0,2012-10-20 10:55:00
7:15 AM,46.4,42.8,87,29.84,10.0,Calm,Calm,-,N/A,,Clear,0,2012-10-20 11:15:00
7:35 AM,44.6,42.8,93,29.85,10.0,Calm,Calm,-,N/A,,Clear,0,2012-10-20 11:35:00
7:55 AM,44.6,42.8,93,29.85,10.0,Calm,Calm,-,N/A,,Clear,0,2012-10-20 11:55:00
8:15 AM,48.2,44.6,87,29.85,10.0,Calm,Calm,-,N/A,,Clear,0,2012-10-20 12:15:00
8:35 AM,51.8,46.4,82,29.85,10.0,Calm,Calm,-,N/A,,Clear,0,2012-10-20 12:35:00
8:55 AM,53.6,46.4,77,29.85,10.0,WSW,4.6,-,N/A,,Clear,250,2012-10-20 12:55:00
9:15 AM,55.4,46.4,72,29.84,10.0,WSW,4.6,-,N/A,,Clear,240,2012-10-20 13:15:00
9:35 AM,59.0,44.6,59,29.84,10.0,WSW,6.9,-,N/A,,Clear,240,2012-10-20 13:35:00
9:55 AM,60.8,44.6,55,29.85,10.0,SW,6.9,-,N/A,,Clear,230,2012-10-20 13:55:00
10:15 AM,60.8,44.6,55,29.85,10.0,WSW,4.6,-,N/A,,Clear,240,2012-10-20 14:15:00
10:35 AM,62.6,44.6,52,29.85,10.0,WSW,6.9,-,N/A,,Clear,250,2012-10-20 14:35:00
10:55 AM,64.4,44.6,49,29.85,10.0,West,5.8,-,N/A,,Clear,270,2012-10-20 14:55:00
11:15 AM,66.2,44.6,46,29.85,10.0,Calm,Calm,-,N/A,,Clear,0,2012-10-20 15:15:00
11:35 AM,68.0,42.8,40,29.85,10.0,WSW,5.8,-,N/A,,Clear,240,2012-10-20 15:35:00
11:55 AM,68.0,42.8,40,29.85,10.0,West,4.6,-,N/A,,Clear,260,2012-10-20 15:55:00
12:15 PM,69.8,42.8,38,29.85,10.0,WNW,8.1,-,N/A,,Clear,290,2012-10-20 16:15:00
12:35 PM,69.8,42.8,38,29.85,10.0,West,6.9,-,N/A,,Clear,280,2012-10-20 16:35:00
12:55 PM,69.8,41.0,35,29.84,10.0,West,9.2,-,N/A,,Clear,280,2012-10-20 16:55:00
1:15 PM,71.6,39.2,31,29.83,10.0,West,8.1,-,N/A,,Clear,260,2012-10-20 17:15:00
1:35 PM,69.8,39.2,33,29.83,10.0,WSW,9.2,17.3,N/A,,Clear,250,2012-10-20 17:35:00
2:15 PM,71.6,39.2,31,29.82,10.0,WSW,11.5,-,N/A,,Clear,240,2012-10-20 18:15:00
2:35 PM,69.8,37.4,31,29.82,10.0,WSW,6.9,-,N/A,,Clear,250,2012-10-20 18:35:00
2:55 PM,71.6,37.4,29,29.82,10.0,WSW,8.1,-,N/A,,Clear,250,2012-10-20 18:55:00
3:15 PM,71.6,39.2,31,29.82,10.0,West,10.4,17.3,N/A,,Clear,270,2012-10-20 19:15:00
3:35 PM,71.6,39.2,31,29.81,10.0,SW,9.2,-,N/A,,Clear,220,2012-10-20 19:35:00
3:55 PM,71.6,39.2,31,29.81,10.0,West,9.2,-,N/A,,Clear,260,2012-10-20 19:55:00
4:15 PM,69.8,39.2,33,29.81,10.0,WSW,8.1,-,N/A,,Clear,240,2012-10-20 20:15:00
4:35 PM,69.8,39.2,33,29.82,10.0,WSW,10.4,-,N/A,,Clear,240,2012-10-20 20:35:00
4:55 PM,69.8,39.2,33,29.82,10.0,WSW,9.2,-,N/A,,Clear,250,2012-10-20 20:55:00
5:15 PM,69.8,41.0,35,29.83,10.0,WSW,5.8,-,N/A,,Clear,250,2012-10-20 21:15:00
5:35 PM,68.0,41.0,37,29.84,10.0,West,4.6,-,N/A,,Clear,260,2012-10-20 21:35:00
5:55 PM,68.0,42.8,40,29.85,10.0,Calm,Calm,-,N/A,,Clear,0,2012-10-20 21:55:00
6:15 PM,64.4,42.8,45,29.85,10.0,Calm,Calm,-,N/A,,Clear,0,2012-10-20 22:15:00
6:35 PM,59.0,46.4,63,29.86,10.0,Calm,Calm,-,N/A,,Clear,0,2012-10-20 22:35:00
6:55 PM,57.2,46.4,67,29.87,10.0,Calm,Calm,-,N/A,,Clear,0,2012-10-20 22:55:00
7:15 PM,55.4,48.2,77,29.88,10.0,Calm,Calm,-,N/A,,Clear,0,2012-10-20 23:15:00
7:35 PM,57.2,48.2,72,29.88,10.0,Calm,Calm,-,N/A,,Clear,0,2012-10-20 23:35:00
7:55 PM,57.2,48.2,72,29.89,10.0,Calm,Calm,-,N/A,,Clear,0,2012-10-20 23:55:00
8:15 PM,51.8,48.2,88,29.90,10.0,Calm,Calm,-,N/A,,Clear,0,2012-10-21 00:15:00
8:35 PM,51.8,48.2,88,29.90,10.0,Calm,Calm,-,N/A,,Clear,0,2012-10-21 00:35:00
8:55 PM,51.8,48.2,88,29.91,10.0,Calm,Calm,-,N/A,,Clear,0,2012-10-21 00:55:00
9:15 PM,51.8,46.4,82,29.91,10.0,Calm,Calm,-,N/A,,Clear,0,2012-10-21 01:15:00
9:35 PM,50.0,48.2,94,29.92,10.0,Calm,Calm,-,N/A,,Clear,0,2012-10-21 01:35:00
9:55 PM,50.0,48.2,94,29.92,10.0,Calm,Calm,-,N/A,,Clear,0,2012-10-21 01:55:00
10:15 PM,50.0,46.4,87,29.93,10.0,Calm,Calm,-,N/A,,Clear,0,2012-10-21 02:15:00
10:35 PM,50.0,46.4,87,29.93,10.0,Calm,Calm,-,N/A,,Clear,0,2012-10-21 02:35:00
10:55 PM,48.2,46.4,93,29.94,10.0,Calm,Calm,-,N/A,,Clear,0,2012-10-21 02:55:00
11:15 PM,48.2,46.4,93,29.95,10.0,Calm,Calm,-,N/A,,Clear,0,2012-10-21 03:15:00
11:35 PM,46.4,46.4,100,29.95,10.0,Calm,Calm,-,N/A,,Clear,0,2012-10-21 03:35:00
11:55 PM,48.2,44.6,87,29.96,10.0,Calm,Calm,-,N/A,,Clear,0,2012-10-21 03:55:00